CPA252 EGLL-VHHH

Flight info

Callsign CPA252
Flight time N/A
Altitude 35000
Route DET L6 DVR UL9 KONAN DCT KOK DCT DENOX DCT MATUG DCT AMASI DCT BOMBI DCT TENLO DCT DEXIT DCT BEGLA DCT BALUX DCT BKS DCT EVRIK DCT EMPOS DCT IRLOX DCT OPT/N0486F370 DCT LUGEB DCT UDROS DCT BAMUP DCT ROLIN DCT FOQUS DCT LAGAS DCT DISKA M737 VERCA M747 SUBUT T916 BALUN/K0902F370 T916 KUNAS N193 UNBAS/K0898F390 N193 SR L163 TISIB L141 KAMUD/K0896S1190 W186 SADAN Y1 NUPNI/K0906S1250 Y1 OMBON W245 OVRAL B330 KWE W181 DUDIT A599 POU R473 SIERA
Aircraft A359/H-SDE2E3GHIJ3J4J5LM1ORWXY/LB1D1

Departure

Time 2026-05-04 08:50
Airport London Heathrow Airport (EGLL)

Arrival

Time N/A
Airport Hong Kong International Airport (VHHH)
Time Latitude Longitude Altitude Speed Heading
2026-05-04 07:30 51.46839 -0.45573 92 ft 0 kts 360°
2026-05-04 07:56 51.46838 -0.45573 92 ft 0 kts 360°
2026-05-04 08:28 51.46837 -0.45573 92 ft 0 kts 360°
2026-05-04 08:35 51.46833 -0.45573 92 ft 3 kts 360°
2026-05-04 08:35 51.46811 -0.45572 92 ft 3 kts 360°
2026-05-04 08:35 51.46788 -0.45572 92 ft 3 kts 359°
2026-05-04 08:35 51.46770 -0.45571 92 ft 3 kts 344°
2026-05-04 08:37 51.46750 -0.45479 91 ft 0 kts 270°
2026-05-04 08:43 51.46749 -0.45495 95 ft 5 kts 266°
2026-05-04 08:43 51.46725 -0.45548 96 ft 8 kts 214°
2026-05-04 08:43 51.46676 -0.45531 96 ft 8 kts 126°
2026-05-04 08:44 51.46664 -0.45445 93 ft 8 kts 94°
2026-05-04 08:44 51.46663 -0.45336 92 ft 11 kts 90°
2026-05-04 08:46 51.46665 -0.44692 93 ft 13 kts 89°
2026-05-04 08:46 51.46665 -0.44526 95 ft 15 kts 89°
2026-05-04 08:46 51.46666 -0.44363 92 ft 15 kts 90°
2026-05-04 08:46 51.46667 -0.44196 92 ft 15 kts 89°
2026-05-04 08:47 51.46667 -0.44034 92 ft 14 kts 90°
2026-05-04 08:47 51.46667 -0.43884 94 ft 11 kts 90°
2026-05-04 08:47 51.46667 -0.43760 95 ft 11 kts 90°
2026-05-04 08:47 51.46655 -0.43644 94 ft 10 kts 126°
2026-05-04 08:48 51.46590 -0.43605 93 ft 10 kts 178°
2026-05-04 08:48 51.46520 -0.43625 96 ft 10 kts 214°
2026-05-04 08:48 51.46495 -0.43731 93 ft 11 kts 267°
2026-05-04 08:48 51.46494 -0.43865 92 ft 16 kts 269°
2026-05-04 08:49 51.46493 -0.44264 94 ft 64 kts 270°
2026-05-04 08:50 51.45620 -0.54234 1691 ft 196 kts 209°
2026-05-04 08:50 51.44271 -0.54542 1913 ft 208 kts 164°
2026-05-04 08:51 51.43071 -0.53187 2110 ft 223 kts 120°
2026-05-04 08:51 51.42510 -0.50808 2418 ft 236 kts 104°
2026-05-04 08:51 51.41950 -0.48274 2834 ft 247 kts 114°
2026-05-04 08:51 51.40816 -0.46179 3328 ft 253 kts 144°
2026-05-04 08:52 51.39330 -0.44622 3890 ft 258 kts 148°
2026-05-04 08:52 51.37778 -0.43139 4432 ft 261 kts 149°
2026-05-04 08:52 51.36207 -0.41676 5010 ft 264 kts 150°
2026-05-04 08:52 51.34605 -0.40203 5614 ft 266 kts 150°
2026-05-04 08:53 51.33004 -0.38656 5938 ft 269 kts 144°
2026-05-04 08:54 51.31688 -0.15840 6017 ft 347 kts 92°
2026-05-04 08:55 51.31634 -0.11954 6151 ft 350 kts 92°
2026-05-04 08:55 51.31577 -0.08051 6774 ft 351 kts 92°
2026-05-04 08:55 51.31519 -0.04133 7444 ft 354 kts 92°
2026-05-04 08:55 51.31459 -0.00179 8069 ft 358 kts 92°
2026-05-04 08:57 51.30986 0.28725 12242 ft 383 kts 93°
2026-05-04 09:01 51.26612 0.91093 19083 ft 431 kts 103°
2026-05-04 09:01 51.26046 0.95801 19474 ft 433 kts 103°
2026-05-04 09:01 51.25477 1.00535 19855 ft 437 kts 103°
2026-05-04 09:01 51.24901 1.05326 20262 ft 439 kts 103°
2026-05-04 09:02 51.24323 1.10123 20654 ft 442 kts 103°
2026-05-04 09:02 51.23738 1.14949 21065 ft 445 kts 103°
2026-05-04 09:02 51.23146 1.19821 21491 ft 447 kts 103°
2026-05-04 09:02 51.22551 1.24694 21913 ft 450 kts 103°
2026-05-04 09:03 51.21950 1.29599 22350 ft 453 kts 103°
2026-05-04 09:03 51.21341 1.34550 22790 ft 455 kts 103°
2026-05-04 09:03 51.20727 1.39525 23216 ft 459 kts 103°
2026-05-04 09:03 51.20106 1.44536 23648 ft 461 kts 104°
2026-05-04 09:04 51.19480 1.49560 24017 ft 464 kts 104°
2026-05-04 09:04 51.18855 1.54567 24385 ft 467 kts 104°
2026-05-04 09:04 51.18211 1.59703 24775 ft 469 kts 104°
2026-05-04 09:04 51.17570 1.64802 25166 ft 471 kts 105°
2026-05-04 09:05 51.17006 1.69272 25508 ft 472 kts 105°
2026-05-04 09:06 51.16498 1.73286 25816 ft 474 kts 105°
2026-05-04 09:07 51.12544 2.09714 28727 ft 481 kts 100°
2026-05-04 09:08 51.12254 2.14956 29180 ft 480 kts 100°
2026-05-04 09:08 51.11972 2.20301 29635 ft 479 kts 100°
2026-05-04 09:08 51.11698 2.25521 30079 ft 478 kts 100°
2026-05-04 09:08 51.11419 2.30775 30478 ft 476 kts 100°
2026-05-04 09:09 51.11137 2.36003 30856 ft 473 kts 100°
2026-05-04 09:09 51.10850 2.41209 31245 ft 471 kts 100°
2026-05-04 09:09 51.10560 2.46385 31653 ft 467 kts 101°
2026-05-04 09:09 51.10270 2.51511 32070 ft 464 kts 101°
2026-05-04 09:10 51.09979 2.56602 32476 ft 460 kts 101°
2026-05-04 09:10 51.09687 2.61638 32904 ft 455 kts 101°
2026-05-04 09:10 51.09217 2.66544 33318 ft 445 kts 108°
2026-05-04 09:10 51.08562 2.71317 33758 ft 438 kts 109°
2026-05-04 09:11 51.07880 2.75997 34154 ft 431 kts 110°
2026-05-04 09:11 51.07194 2.80559 34517 ft 424 kts 110°
2026-05-04 09:11 51.06498 2.85118 34849 ft 417 kts 110°
2026-05-04 09:11 51.05811 2.89581 34974 ft 417 kts 110°
2026-05-04 09:12 51.05119 2.94058 34995 ft 418 kts 110°
2026-05-04 09:14 50.99404 3.30950 34961 ft 443 kts 110°
2026-05-04 09:14 50.97906 3.40526 34993 ft 449 kts 110°
2026-05-04 09:15 50.96382 3.50201 34979 ft 456 kts 110°
2026-05-04 09:15 50.94825 3.60024 34990 ft 463 kts 110°
2026-05-04 09:17 50.87361 4.06283 35002 ft 499 kts 110°
2026-05-04 09:18 50.85405 4.16871 35008 ft 504 kts 112°
2026-05-04 09:18 50.83341 4.27549 35020 ft 508 kts 112°
2026-05-04 09:19 50.81294 4.38246 35018 ft 506 kts 112°
2026-05-04 09:19 50.79275 4.48883 35020 ft 506 kts 112°
2026-05-04 09:20 50.77587 4.57743 35014 ft 506 kts 112°
2026-05-04 09:20 50.75555 4.68354 34991 ft 505 kts 112°
2026-05-04 09:21 50.73167 4.80721 34990 ft 507 kts 112°
2026-05-04 09:21 50.71439 4.89631 34987 ft 507 kts 112°
2026-05-04 09:22 50.69364 5.00268 34991 ft 507 kts 112°
2026-05-04 09:22 50.67283 5.10885 35008 ft 507 kts 112°
2026-05-04 09:23 50.65190 5.21491 35014 ft 508 kts 112°
2026-05-04 09:23 50.63076 5.32148 35020 ft 509 kts 112°
2026-05-04 09:25 50.54534 5.74647 34994 ft 510 kts 112°
2026-05-04 09:26 50.52374 5.85250 34988 ft 509 kts 112°
2026-05-04 09:26 50.50214 5.95797 34993 ft 510 kts 112°
2026-05-04 09:27 50.48035 6.06377 34977 ft 509 kts 112°
2026-05-04 09:27 50.45852 6.16927 34999 ft 507 kts 112°
2026-05-04 09:28 50.43649 6.27518 34990 ft 507 kts 113°
2026-05-04 09:28 50.41580 6.38001 34989 ft 510 kts 108°
2026-05-04 09:29 50.40008 6.48862 34966 ft 511 kts 107°
2026-05-04 09:29 50.38514 6.59725 34993 ft 511 kts 106°
2026-05-04 09:30 50.37009 6.70622 34999 ft 511 kts 107°
2026-05-04 09:30 50.35488 6.81485 34991 ft 511 kts 107°
2026-05-04 09:31 50.33950 6.92349 35013 ft 511 kts 107°
2026-05-04 09:31 50.32405 7.03181 35016 ft 511 kts 107°
2026-05-04 09:32 50.30842 7.14061 35015 ft 511 kts 107°
2026-05-04 09:34 50.24507 7.57410 35002 ft 512 kts 107°
2026-05-04 09:34 50.22897 7.68247 35001 ft 512 kts 107°
2026-05-04 09:35 50.21283 7.79064 35004 ft 512 kts 107°
2026-05-04 09:35 50.19658 7.89878 35009 ft 512 kts 107°
2026-05-04 09:37 50.13053 8.33074 35033 ft 512 kts 107°
2026-05-04 09:38 50.11375 8.43865 35008 ft 511 kts 107°
2026-05-04 09:38 50.09698 8.54589 35021 ft 510 kts 108°
2026-05-04 09:39 50.08010 8.65303 35020 ft 510 kts 108°
2026-05-04 09:39 50.06310 8.76020 35020 ft 510 kts 108°
2026-05-04 09:40 50.04206 8.86517 35020 ft 506 kts 113°
2026-05-04 09:40 50.01896 8.96859 35021 ft 506 kts 113°
2026-05-04 09:42 49.92484 9.38018 35028 ft 506 kts 114°
2026-05-04 09:43 49.90103 9.48326 35029 ft 506 kts 114°
2026-05-04 09:43 49.87718 9.58600 35036 ft 506 kts 114°
2026-05-04 09:44 49.85323 9.68861 35041 ft 506 kts 114°
2026-05-04 09:46 49.75654 10.09822 35033 ft 507 kts 114°
2026-05-04 09:46 49.73224 10.19997 35025 ft 507 kts 114°
2026-05-04 09:47 49.70776 10.30199 35025 ft 506 kts 114°
2026-05-04 09:49 49.60889 10.70923 35035 ft 507 kts 114°
2026-05-04 09:51 49.52128 11.06391 35048 ft 506 kts 114°
2026-05-04 09:51 49.49455 11.16413 35048 ft 505 kts 116°
2026-05-04 09:52 49.46694 11.26328 35029 ft 505 kts 116°
2026-05-04 09:52 49.43942 11.36264 35032 ft 505 kts 116°
2026-05-04 09:53 49.41203 11.46206 35030 ft 506 kts 116°
2026-05-04 09:53 49.38462 11.56139 35025 ft 505 kts 116°
2026-05-04 09:54 49.35709 11.66072 35015 ft 506 kts 116°
2026-05-04 09:54 49.32962 11.75936 35021 ft 507 kts 116°
2026-05-04 09:55 49.30183 11.85874 35022 ft 507 kts 116°
2026-05-04 09:55 49.27402 11.95778 35018 ft 507 kts 116°
2026-05-04 09:56 49.24623 12.05633 35014 ft 507 kts 116°
2026-05-04 09:56 49.21832 12.15491 35036 ft 506 kts 116°
2026-05-04 09:57 49.19017 12.25391 35025 ft 507 kts 116°
2026-05-04 09:57 49.16201 12.35252 35024 ft 506 kts 116°
2026-05-04 09:58 49.13378 12.45099 35024 ft 506 kts 116°
2026-05-04 09:58 49.10566 12.54868 35025 ft 506 kts 116°
2026-05-04 10:00 48.99171 12.94054 35031 ft 507 kts 116°
2026-05-04 10:04 48.78885 13.62285 35030 ft 506 kts 116°
2026-05-04 10:04 48.75948 13.72007 35031 ft 507 kts 116°
2026-05-04 10:05 48.73291 13.81831 35031 ft 509 kts 112°
2026-05-04 10:05 48.70840 13.91896 35029 ft 509 kts 112°
2026-05-04 10:06 48.68339 14.01924 35027 ft 509 kts 112°
2026-05-04 10:06 48.65779 14.11897 35028 ft 509 kts 113°
2026-05-04 10:08 48.56703 14.46673 35026 ft 509 kts 113°
2026-05-04 10:08 48.54091 14.56593 35026 ft 508 kts 113°
2026-05-04 10:09 48.51475 14.66489 35025 ft 508 kts 113°
2026-05-04 10:09 48.48862 14.76327 35029 ft 508 kts 113°
2026-05-04 10:10 48.46227 14.86208 35021 ft 508 kts 113°
2026-05-04 10:10 48.43585 14.96076 35027 ft 507 kts 113°
2026-05-04 10:11 48.40961 15.05833 35030 ft 506 kts 113°
2026-05-04 10:11 48.38312 15.15644 35029 ft 506 kts 113°
2026-05-04 10:12 48.35649 15.25465 35026 ft 506 kts 113°
2026-05-04 10:12 48.32984 15.35250 35027 ft 506 kts 113°
2026-05-04 10:13 48.30329 15.44962 35028 ft 506 kts 113°
2026-05-04 10:13 48.27644 15.54741 35032 ft 506 kts 113°
2026-05-04 10:14 48.24956 15.64487 35029 ft 506 kts 113°
2026-05-04 10:16 48.14127 16.03365 35032 ft 506 kts 113°
2026-05-04 10:16 48.11402 16.13048 35039 ft 505 kts 113°
2026-05-04 10:17 48.08664 16.22739 35041 ft 505 kts 113°
2026-05-04 10:19 47.97656 16.61312 35050 ft 507 kts 113°
2026-05-04 10:19 47.94876 16.70958 35050 ft 506 kts 113°
2026-05-04 10:20 47.92103 16.80539 35052 ft 507 kts 113°
2026-05-04 10:20 47.89305 16.90170 35061 ft 506 kts 113°
2026-05-04 10:21 47.86502 16.99781 35062 ft 506 kts 113°
2026-05-04 10:21 47.83691 17.09380 35062 ft 506 kts 113°
2026-05-04 10:22 47.79926 17.24050 35069 ft 505 kts 107°
2026-05-04 10:23 47.77764 17.33922 35072 ft 505 kts 108°
2026-05-04 10:25 47.68534 17.73226 35102 ft 504 kts 109°
2026-05-04 10:25 47.66191 17.83006 35081 ft 504 kts 109°
2026-05-04 10:26 47.63835 17.92804 35093 ft 504 kts 108°
2026-05-04 10:26 47.61488 18.02519 35093 ft 504 kts 109°
2026-05-04 10:27 47.59116 18.12298 35097 ft 504 kts 109°
2026-05-04 10:27 47.56731 18.22084 35106 ft 504 kts 109°
2026-05-04 10:28 47.54344 18.31835 35104 ft 504 kts 108°
2026-05-04 10:28 47.51961 18.41527 35110 ft 504 kts 108°
2026-05-04 10:29 47.49557 18.51266 35114 ft 504 kts 108°
2026-05-04 10:29 47.47145 18.60994 35115 ft 504 kts 108°
2026-05-04 10:30 47.44725 18.70708 35118 ft 503 kts 109°
2026-05-04 10:30 47.42307 18.80372 35133 ft 502 kts 109°
2026-05-04 10:31 47.39895 18.89976 35137 ft 502 kts 109°
2026-05-04 10:32 47.31297 19.23551 35141 ft 500 kts 110°
2026-05-04 10:33 47.28712 19.33063 35135 ft 501 kts 110°
2026-05-04 10:33 47.26128 19.42568 35146 ft 500 kts 110°
2026-05-04 10:34 47.23549 19.52074 35130 ft 499 kts 110°
2026-05-04 10:34 47.21404 19.59967 35149 ft 499 kts 110°
2026-05-04 10:35 47.18403 19.70965 35138 ft 499 kts 110°
2026-05-04 10:35 47.15814 19.80409 35147 ft 498 kts 109°
2026-05-04 10:36 47.13213 19.89859 35149 ft 498 kts 109°
2026-05-04 10:36 47.10616 19.99259 35149 ft 498 kts 109°
2026-05-04 10:37 47.08019 20.08620 35144 ft 498 kts 110°
2026-05-04 10:37 47.05405 20.18006 35152 ft 497 kts 109°
2026-05-04 10:39 46.96647 20.49192 35146 ft 497 kts 110°
2026-05-04 10:40 46.93578 20.60022 35148 ft 497 kts 110°
2026-05-04 10:40 46.91372 20.67780 35149 ft 497 kts 110°
2026-05-04 10:41 46.88710 20.77108 35146 ft 497 kts 110°
2026-05-04 10:41 46.86045 20.86411 35150 ft 497 kts 110°
2026-05-04 10:42 46.83366 20.95725 35143 ft 497 kts 110°
2026-05-04 10:42 46.80699 21.04956 35146 ft 497 kts 110°
2026-05-04 10:43 46.77549 21.13955 35146 ft 499 kts 116°
2026-05-04 10:45 46.64169 21.49237 35146 ft 498 kts 116°
2026-05-04 10:45 46.60812 21.58031 35147 ft 497 kts 116°
2026-05-04 10:46 46.57446 21.66822 35146 ft 497 kts 116°
2026-05-04 10:46 46.54075 21.75595 35147 ft 497 kts 116°
2026-05-04 10:47 46.50718 21.84304 35148 ft 498 kts 116°
2026-05-04 10:47 46.47331 21.93063 35143 ft 496 kts 116°
2026-05-04 10:49 46.33824 22.27751 35134 ft 492 kts 116°
2026-05-04 10:50 46.30615 22.36468 35131 ft 491 kts 115°
2026-05-04 10:52 46.17800 22.71247 35125 ft 490 kts 115°
2026-05-04 10:52 46.16259 22.75373 35119 ft 490 kts 115°